User: anonymous   Login
Location: Caltech
(34.1382°N, 118.1253°W)
Time: 17:20:35
(UTC-07:00)
Language:

ASTRO E2 - Orbit

View from above orbital plane
View from above orbital plane
View from above satellite
View from above satellite

Ground track
Ground track

The orbit data is extracted from the following two-line orbital elements,

1 28773U 05025A   15244.33284613  .00001993  00000-0  10467-3 0  9998
2 28773  31.3826 216.3568 0005268 263.2558  96.7488 15.13277749557976
Epoch (UTC): 01 September 2015 07:59:17
Eccentricity: 0.0005268
inclination: 31.3826°
perigee height: 522 km
apogee height: 530 km
right ascension of ascending node: 216.3568°
argument of perigee: 263.2558°
revolutions per day: 15.13277749
mean anomaly at epoch: 96.7488°
orbit number at epoch: 55797

The dashed part of the orbit path shows where the satellite is in the earth's shadow,  

DLR